This is the latest recevied weather packets stored in our database for station/object KC7UNY-13. If no packets are shown the sender has not sent any weather packets the latest 1 day(s).
| Time | Temp. | Humidity | Pressure | Rain* | Wind** | Luminosity | Snow |
|---|---|---|---|---|---|---|---|
| 1778028690 | 23.89° C | 29% | 1009.9 hPa | 0 mm | 1.34 m/s, 303° | 107 W/m² | - |
| 1778028386 | 24.44° C | 28% | 1009.9 hPa | 0 mm | 0.89 m/s, 318° | 44 W/m² | - |
| 1778028084 | 25° C | 28% | 1009.7 hPa | 0 mm | 2.24 m/s, 281° | 125 W/m² | - |
| 1778027780 | 25° C | 28% | 1009.7 hPa | 0 mm | 1.34 m/s, 301° | 148 W/m² | - |
| 1778027476 | 25° C | 28% | 1009.7 hPa | 0 mm | 1.79 m/s, 264° | 166 W/m² | - |
| 1778027172 | 25° C | 28% | 1009.8 hPa | 0 mm | 0.89 m/s, 287° | 169 W/m² | - |
| 1778026868 | 25.56° C | 28% | 1009.6 hPa | 0 mm | 3.13 m/s, 273° | 171 W/m² | - |
| 1778026565 | 25° C | 28% | 1009.7 hPa | 0 mm | 1.79 m/s, 311° | 183 W/m² | - |
| 1778026262 | 25° C | 28% | 1009.7 hPa | 0 mm | 2.24 m/s, 292° | 197 W/m² | - |
| 1778025959 | 25.56° C | 28% | 1009.6 hPa | 0 mm | 2.68 m/s, 285° | 210 W/m² | - |
| 1778025656 | 25° C | 28% | 1009.5 hPa | 0 mm | 1.79 m/s, 296° | 232 W/m² | - |
| 1778025354 | 26.11° C | 27% | 1009.5 hPa | 0 mm | 0.89 m/s, 286° | 260 W/m² | - |
| 1778025051 | 25.56° C | 27% | 1009.5 hPa | 0 mm | 0.45 m/s, 312° | 271 W/m² | - |
| 1778024748 | 25.56° C | 28% | 1009.6 hPa | 0 mm | 1.34 m/s, 338° | 281 W/m² | - |
| 1778024444 | 25.56° C | 28% | 1009.5 hPa | 0 mm | 1.79 m/s, 292° | 279 W/m² | - |
| 1778024142 | 25.56° C | 28% | 1009.4 hPa | 0 mm | 1.34 m/s, 295° | 296 W/m² | - |
| 1778023840 | 25.56° C | 28% | 1009.5 hPa | 0 mm | 1.34 m/s, 304° | 311 W/m² | - |
| 1778023537 | 25.56° C | 29% | 1009.6 hPa | 0 mm | 2.68 m/s, 302° | 327 W/m² | - |
| 1778023235 | 25° C | 28% | 1009.6 hPa | 0 mm | 1.34 m/s, 307° | 343 W/m² | - |
| 1778022931 | 25.56° C | 28% | 1009.5 hPa | 0 mm | 1.34 m/s, 16° | 363 W/m² | - |
| 1778022630 | 25° C | 28% | 1009.6 hPa | 0 mm | 1.79 m/s, 309° | 375 W/m² | - |
| 1778022327 | 25.56° C | 29% | 1009.5 hPa | 0 mm | 3.58 m/s, 286° | 392 W/m² | - |
| 1778022024 | 26.67° C | 28% | 1009.5 hPa | 0 mm | 2.24 m/s, 275° | 413 W/m² | - |
| 1778021720 | 25.56° C | 29% | 1009.5 hPa | 0 mm | 1.79 m/s, 242° | 440 W/m² | - |
| 1778021416 | 25° C | 30% | 1009.5 hPa | 0 mm | 1.79 m/s, 57° | 463 W/m² | - |
* Rain latest hour (hover to see other rain measurements)
** Current wind speed in m/s (hover to see current wind gust speed)